TimeCST,TemperatureF,Dew PointF,Humidity,Sea Level PressureIn,VisibilityMPH,Wind Direction,Wind SpeedMPH,Gust SpeedMPH,PrecipitationIn,Events,Conditions,WindDirDegrees,DateUTC
12:53 AM,52.0,28.0,40,30.26,10.0,North,15.0,-,N/A,,Clear,350,2013-03-06 06:53:00
1:53 AM,50.0,27.0,41,30.27,10.0,North,13.8,-,N/A,,Clear,360,2013-03-06 07:53:00
2:53 AM,46.0,27.0,47,30.27,10.0,North,9.2,-,N/A,,Clear,360,2013-03-06 08:53:00
3:53 AM,44.1,30.0,58,30.29,10.0,NNW,5.8,-,N/A,,Clear,340,2013-03-06 09:53:00
4:53 AM,43.0,27.0,53,30.31,10.0,North,5.8,-,N/A,,Clear,350,2013-03-06 10:53:00
6:53 AM,43.0,27.0,53,30.35,10.0,North,5.8,-,N/A,,Clear,360,2013-03-06 12:53:00
7:53 AM,48.0,28.9,48,30.38,10.0,North,8.1,-,N/A,,Clear,360,2013-03-06 13:53:00
8:53 AM,51.1,26.1,38,30.37,10.0,NNE,11.5,-,N/A,,Clear,20,2013-03-06 14:53:00
9:53 AM,55.0,27.0,34,30.37,10.0,North,8.1,-,N/A,,Clear,350,2013-03-06 15:53:00
10:53 AM,57.0,27.0,32,30.36,10.0,North,10.4,-,N/A,,Clear,10,2013-03-06 16:53:00
11:53 AM,60.1,27.0,28,30.34,10.0,Variable,6.9,-,N/A,,Clear,0,2013-03-06 17:53:00
12:53 PM,63.0,25.0,24,30.31,10.0,North,-9999.0,-,N/A,,Clear,0,2013-03-06 18:53:00
1:53 PM,64.9,26.1,23,30.28,10.0,North,10.4,18.4,N/A,,Clear,360,2013-03-06 19:53:00
2:53 PM,64.9,28.0,25,30.26,10.0,Variable,6.9,-,N/A,,Clear,0,2013-03-06 20:53:00
3:53 PM,64.9,26.1,23,30.25,10.0,North,11.5,-,N/A,,Clear,10,2013-03-06 21:53:00
4:53 PM,63.0,28.0,27,30.25,10.0,NNW,10.4,-,N/A,,Clear,330,2013-03-06 22:53:00
5:53 PM,57.0,28.0,33,30.26,10.0,North,8.1,-,N/A,,Clear,360,2013-03-06 23:53:00
6:53 PM,53.1,28.0,38,30.27,10.0,NNE,4.6,-,N/A,,Clear,20,2013-03-07 00:53:00
7:53 PM,51.1,35.1,54,30.28,10.0,Calm,Calm,-,N/A,,Clear,0,2013-03-07 01:53:00
8:53 PM,50.0,35.1,57,30.28,10.0,Calm,Calm,-,N/A,,Clear,0,2013-03-07 02:53:00
9:53 PM,46.9,34.0,61,30.28,10.0,NE,3.5,-,N/A,,Clear,50,2013-03-07 03:53:00
10:53 PM,48.9,30.9,50,30.28,10.0,ENE,6.9,-,N/A,,Clear,60,2013-03-07 04:53:00
11:53 PM,48.9,30.9,50,30.26,10.0,ENE,8.1,-,N/A,,Clear,60,2013-03-07 05:53:00